TimePST,TemperatureF,Dew PointF,Humidity,Sea Level PressureIn,VisibilityMPH,Wind Direction,Wind SpeedMPH,Gust SpeedMPH,PrecipitationIn,Events,Conditions,WindDirDegrees,DateUTC
12:15 AM,51.8,35.6,54,30.14,10.0,SE,13.8,18.4,N/A,,Overcast,140,2013-02-23 08:15:00
12:35 AM,50.0,37.4,62,30.13,10.0,SSE,16.1,20.7,N/A,,Scattered Clouds,150,2013-02-23 08:35:00
12:55 AM,50.0,37.4,62,30.11,10.0,SSE,17.3,24.2,N/A,,Clear,150,2013-02-23 08:55:00
1:15 AM,50.0,37.4,62,30.13,10.0,SSE,15.0,-,N/A,,Clear,160,2013-02-23 09:15:00
1:35 AM,48.2,37.4,66,30.12,10.0,SSE,17.3,-,N/A,,Clear,150,2013-02-23 09:35:00
1:55 AM,48.2,39.2,71,30.12,10.0,SSE,17.3,-,N/A,,Clear,150,2013-02-23 09:55:00
2:15 AM,48.2,39.2,71,30.11,10.0,SSE,17.3,21.9,N/A,,Clear,150,2013-02-23 10:15:00
2:35 AM,48.2,39.2,71,30.12,10.0,SSE,17.3,-,N/A,,Clear,150,2013-02-23 10:35:00
2:55 AM,46.4,41.0,81,30.12,10.0,SSE,16.1,-,N/A,,Clear,150,2013-02-23 10:55:00
3:15 AM,46.4,41.0,81,30.11,10.0,SSE,15.0,-,N/A,,Clear,150,2013-02-23 11:15:00
3:35 AM,46.4,41.0,81,30.11,10.0,SSE,15.0,-,N/A,,Clear,150,2013-02-23 11:35:00
4:15 AM,46.4,41.0,81,30.11,10.0,SSE,13.8,-,N/A,,Scattered Clouds,160,2013-02-23 12:15:00
4:35 AM,46.4,39.2,76,30.12,10.0,SE,11.5,-,N/A,,Scattered Clouds,140,2013-02-23 12:35:00
4:55 AM,46.4,39.2,76,30.12,10.0,SE,10.4,-,N/A,,Clear,140,2013-02-23 12:55:00
5:15 AM,44.6,39.2,81,30.12,10.0,SSE,12.7,-,N/A,,Clear,150,2013-02-23 13:15:00
5:35 AM,44.6,39.2,81,30.13,10.0,SE,10.4,-,N/A,,Clear,140,2013-02-23 13:35:00
5:55 AM,42.8,37.4,81,30.14,10.0,South,5.8,-,N/A,,Clear,170,2013-02-23 13:55:00
6:15 AM,42.8,37.4,81,30.16,10.0,SSE,3.5,-,N/A,,Clear,160,2013-02-23 14:15:00
6:35 AM,42.8,37.4,81,30.16,10.0,SSE,4.6,-,N/A,,Clear,160,2013-02-23 14:35:00
6:55 AM,41.0,35.6,81,30.17,10.0,Calm,Calm,-,N/A,,Scattered Clouds,0,2013-02-23 14:55:00
7:15 AM,42.8,39.2,87,30.18,10.0,Calm,Calm,-,N/A,,Overcast,0,2013-02-23 15:15:00
7:35 AM,41.0,39.2,93,30.19,10.0,Calm,Calm,-,N/A,,Mostly Cloudy,0,2013-02-23 15:35:00
7:55 AM,41.0,37.4,87,30.21,10.0,NNW,4.6,-,N/A,,Scattered Clouds,340,2013-02-23 15:55:00
8:15 AM,42.8,41.0,93,30.22,10.0,NW,3.5,-,N/A,,Mostly Cloudy,320,2013-02-23 16:15:00
8:35 AM,44.6,41.0,87,30.23,10.0,NNW,5.8,-,N/A,,Overcast,330,2013-02-23 16:35:00
8:55 AM,46.4,42.8,87,30.23,10.0,NW,5.8,-,N/A,,Overcast,320,2013-02-23 16:55:00
9:15 AM,48.2,42.8,82,30.23,10.0,NW,5.8,-,N/A,,Overcast,320,2013-02-23 17:15:00
10:15 AM,51.8,32.0,47,30.23,10.0,NNW,15.0,-,N/A,,Clear,330,2013-02-23 18:15:00
10:35 AM,51.8,30.2,44,30.23,10.0,NNW,15.0,20.7,N/A,,Clear,330,2013-02-23 18:35:00
10:55 AM,53.6,30.2,41,30.22,10.0,NNW,16.1,-,N/A,,Clear,340,2013-02-23 18:55:00
11:15 AM,53.6,30.2,41,30.22,10.0,NNW,16.1,-,N/A,,Clear,340,2013-02-23 19:15:00
11:35 AM,55.4,28.4,36,30.22,10.0,NNW,17.3,23.0,N/A,,Clear,330,2013-02-23 19:35:00
11:55 AM,55.4,28.4,36,30.22,10.0,NNW,13.8,-,N/A,,Clear,330,2013-02-23 19:55:00
12:15 PM,55.4,28.4,36,30.21,10.0,NW,15.0,-,N/A,,Clear,320,2013-02-23 20:15:00
12:35 PM,57.2,28.4,33,30.19,10.0,NNW,17.3,-,N/A,,Clear,330,2013-02-23 20:35:00
12:55 PM,55.4,28.4,36,30.19,10.0,NNW,16.1,24.2,N/A,,Clear,330,2013-02-23 20:55:00
1:15 PM,57.2,26.6,31,30.18,10.0,NW,15.0,20.7,N/A,,Clear,320,2013-02-23 21:15:00
1:35 PM,57.2,26.6,31,30.17,10.0,NNW,13.8,21.9,N/A,,Clear,330,2013-02-23 21:35:00
1:55 PM,59.0,26.6,29,30.16,10.0,NNW,17.3,23.0,N/A,,Clear,330,2013-02-23 21:55:00
2:15 PM,59.0,26.6,29,30.15,10.0,NW,13.8,-,N/A,,Clear,320,2013-02-23 22:15:00
2:35 PM,59.0,26.6,29,30.15,10.0,NW,18.4,25.3,N/A,,Clear,320,2013-02-23 22:35:00
2:55 PM,59.0,24.8,27,30.15,10.0,NNW,19.6,26.5,N/A,,Clear,330,2013-02-23 22:55:00
3:15 PM,59.0,24.8,27,30.15,10.0,NW,17.3,26.5,N/A,,Clear,320,2013-02-23 23:15:00
3:35 PM,59.0,24.8,27,30.14,10.0,NW,17.3,26.5,N/A,,Clear,310,2013-02-23 23:35:00
3:55 PM,59.0,23.0,25,30.14,10.0,NW,18.4,24.2,N/A,,Clear,320,2013-02-23 23:55:00
4:15 PM,59.0,23.0,25,30.14,10.0,NW,16.1,23.0,N/A,,Clear,320,2013-02-24 00:15:00
4:35 PM,57.2,23.0,27,30.14,10.0,NNW,17.3,23.0,N/A,,Clear,330,2013-02-24 00:35:00
4:55 PM,55.4,23.0,29,30.14,10.0,NW,16.1,-,N/A,,Clear,320,2013-02-24 00:55:00
5:15 PM,55.4,26.6,33,30.14,10.0,NW,12.7,-,N/A,,Clear,320,2013-02-24 01:15:00
5:35 PM,53.6,26.6,35,30.14,10.0,NNW,15.0,-,N/A,,Clear,330,2013-02-24 01:35:00
5:55 PM,51.8,24.8,35,30.15,10.0,NW,12.7,-,N/A,,Clear,320,2013-02-24 01:55:00
6:15 PM,51.8,26.6,38,30.16,10.0,NNW,15.0,-,N/A,,Clear,330,2013-02-24 02:15:00
6:35 PM,50.0,26.6,40,30.17,10.0,NNW,11.5,-,N/A,,Clear,330,2013-02-24 02:35:00
6:55 PM,48.2,28.4,46,30.17,10.0,NNW,9.2,-,N/A,,Clear,340,2013-02-24 02:55:00
7:15 PM,46.4,28.4,50,30.17,10.0,NNW,11.5,-,N/A,,Clear,340,2013-02-24 03:15:00
7:35 PM,44.6,30.2,57,30.18,10.0,North,8.1,-,N/A,,Clear,360,2013-02-24 03:35:00
7:55 PM,44.6,28.4,53,30.18,10.0,NNW,9.2,-,N/A,,Clear,340,2013-02-24 03:55:00
8:15 PM,41.0,30.2,65,30.18,10.0,NNW,6.9,-,N/A,,Clear,340,2013-02-24 04:15:00
8:35 PM,39.2,28.4,65,30.19,10.0,NNW,5.8,-,N/A,,Clear,330,2013-02-24 04:35:00
8:55 PM,39.2,28.4,65,30.19,10.0,NNW,6.9,-,N/A,,Clear,340,2013-02-24 04:55:00
9:15 PM,37.4,28.4,70,30.19,10.0,North,8.1,-,N/A,,Clear,350,2013-02-24 05:15:00
9:35 PM,37.4,26.6,65,30.19,10.0,NNW,9.2,-,N/A,,Clear,340,2013-02-24 05:35:00
9:55 PM,37.4,26.6,65,30.20,10.0,North,8.1,-,N/A,,Clear,360,2013-02-24 05:55:00
10:15 PM,35.6,26.6,70,30.20,10.0,NNW,9.2,-,N/A,,Clear,340,2013-02-24 06:15:00
10:35 PM,35.6,26.6,70,30.20,10.0,NNW,10.4,-,N/A,,Clear,340,2013-02-24 06:35:00
10:55 PM,37.4,26.6,65,30.20,10.0,NNW,11.5,-,N/A,,Clear,340,2013-02-24 06:55:00
11:15 PM,39.2,26.6,61,30.20,10.0,NNW,6.9,-,N/A,,Clear,330,2013-02-24 07:15:00
11:35 PM,37.4,26.6,65,30.19,10.0,NNW,11.5,-,N/A,,Clear,330,2013-02-24 07:35:00
11:55 PM,41.0,24.8,53,30.20,10.0,NNW,13.8,-,N/A,,Clear,340,2013-02-24 07:55:00